カタログに戻る

TDRS 13

運用中通信GEO
NORAD 42915·PAYLOAD·🇺🇸 United States

打ち上げ Aug 18, 2017 から Cape Canaveral Space Force Station

Loading…

TLE

最新Source: Space-Track

元期: Sep 14, 2026, 08:37 UTC

1 42915U 17047A   26257.35905172 -.00000106  00000-0  00000-0 0  9992
2 42915   3.4834   4.8632 0013652 121.3822 344.9636  1.00271882 33240

AllMySatでTDRS 13をリアルタイム追跡

Download on the App Store